Time,TemperatureF,DewpointF,PressureIn,WindDirection,WindDirectionDegrees,WindSpeedMPH,WindSpeedGustMPH,Humidity,HourlyPrecipIn,Conditions,Clouds,dailyrainin,SoftwareType,DateUTC
2013-06-03 00:02:00,57.1,50.7,30.11,East,89,0.0,1.0,79,0.00,,,0.00,WUHU216DAVISVP2,2013-06-03 07:02:00,
2013-06-03 00:07:00,57.1,50.7,30.11,East,87,0.0,1.0,79,0.00,,,0.00,WUHU216DAVISVP2,2013-06-03 07:07:00,
2013-06-03 00:12:00,57.2,50.8,30.11,East,88,0.0,1.0,79,0.00,,,0.00,WUHU216DAVISVP2,2013-06-03 07:12:00,
2013-06-03 00:17:00,57.3,50.9,30.11,East,87,0.0,1.0,79,0.00,,,0.00,WUHU216DAVISVP2,2013-06-03 07:17:00,
2013-06-03 00:22:00,57.3,50.9,30.11,East,93,0.0,1.0,79,0.00,,,0.00,WUHU216DAVISVP2,2013-06-03 07:22:00,
2013-06-03 00:27:00,57.3,50.9,30.11,East,93,0.0,1.0,79,0.00,,,0.00,WUHU216DAVISVP2,2013-06-03 07:27:00,
2013-06-03 00:32:00,57.2,51.1,30.10,East,93,0.0,1.0,80,0.00,,,0.00,WUHU216DAVISVP2,2013-06-03 07:32:00,
2013-06-03 00:37:00,57.0,50.9,30.10,East,93,0.0,1.0,80,0.00,,,0.00,WUHU216DAVISVP2,2013-06-03 07:37:00,
2013-06-03 00:42:00,56.7,51.0,30.10,WSW,253,1.0,2.0,81,0.00,,,0.00,WUHU216DAVISVP2,2013-06-03 07:42:00,
2013-06-03 00:47:00,56.5,50.8,30.11,WSW,249,0.0,2.0,81,0.00,,,0.00,WUHU216DAVISVP2,2013-06-03 07:47:00,
2013-06-03 00:52:00,56.2,50.8,30.11,WSW,252,0.0,2.0,82,0.00,,,0.00,WUHU216DAVISVP2,2013-06-03 07:52:00,
2013-06-03 00:57:00,55.9,50.5,30.11,WSW,252,0.0,2.0,82,0.00,,,0.00,WUHU216DAVISVP2,2013-06-03 07:57:00,
2013-06-03 01:02:00,55.5,50.1,30.11,WSW,252,0.0,1.0,82,0.00,,,0.00,WUHU216DAVISVP2,2013-06-03 08:02:00,
2013-06-03 01:07:00,55.2,50.4,30.11,WSW,252,0.0,1.0,84,0.00,,,0.00,WUHU216DAVISVP2,2013-06-03 08:07:00,
2013-06-03 01:12:00,55.2,50.8,30.11,WSW,251,0.0,0.0,85,0.00,,,0.00,WUHU216DAVISVP2,2013-06-03 08:12:00,
2013-06-03 01:17:00,55.2,50.8,30.11,WSW,252,0.0,0.0,85,0.00,,,0.00,WUHU216DAVISVP2,2013-06-03 08:17:00,
2013-06-03 01:22:00,55.1,50.7,30.11,WSW,242,0.0,0.0,85,0.00,,,0.00,WUHU216DAVISVP2,2013-06-03 08:22:00,
2013-06-03 01:27:00,55.1,50.4,30.11,SSW,200,0.0,2.0,84,0.00,,,0.00,WUHU216DAVISVP2,2013-06-03 08:27:00,
2013-06-03 01:32:00,55.1,50.4,30.11,SW,224,2.0,4.0,84,0.00,,,0.00,WUHU216DAVISVP2,2013-06-03 08:32:00,
2013-06-03 01:37:00,55.0,50.3,30.11,WSW,252,2.0,4.0,84,0.00,,,0.00,WUHU216DAVISVP2,2013-06-03 08:37:00,
2013-06-03 01:42:00,55.0,49.9,30.11,SW,221,2.0,3.0,83,0.00,,,0.00,WUHU216DAVISVP2,2013-06-03 08:42:00,
2013-06-03 01:47:00,54.9,49.5,30.11,SSW,212,1.0,4.0,82,0.00,,,0.00,WUHU216DAVISVP2,2013-06-03 08:47:00,
2013-06-03 01:52:00,54.7,49.3,30.11,SW,231,4.0,5.0,82,0.00,,,0.00,WUHU216DAVISVP2,2013-06-03 08:52:00,
2013-06-03 01:57:00,54.5,49.5,30.11,WSW,254,2.0,7.0,83,0.00,,,0.00,WUHU216DAVISVP2,2013-06-03 08:57:00,
2013-06-03 02:02:00,54.3,49.3,30.11,SW,226,3.0,7.0,83,0.00,,,0.00,WUHU216DAVISVP2,2013-06-03 09:02:00,
2013-06-03 02:07:00,54.2,49.2,30.11,SW,216,2.0,6.0,83,0.00,,,0.00,WUHU216DAVISVP2,2013-06-03 09:07:00,
2013-06-03 02:12:00,54.0,49.3,30.11,SSW,211,3.0,6.0,84,0.00,,,0.00,WUHU216DAVISVP2,2013-06-03 09:12:00,
2013-06-03 02:17:00,53.8,49.4,30.11,WSW,248,1.0,6.0,85,0.00,,,0.00,WUHU216DAVISVP2,2013-06-03 09:17:00,
2013-06-03 02:22:00,53.6,49.5,30.11,SW,222,5.0,6.0,86,0.00,,,0.00,WUHU216DAVISVP2,2013-06-03 09:22:00,
2013-06-03 02:27:00,53.4,49.3,30.11,SSW,210,3.0,7.0,86,0.00,,,0.00,WUHU216DAVISVP2,2013-06-03 09:27:00,
2013-06-03 02:32:00,53.3,49.2,30.11,WSW,252,3.0,7.0,86,0.00,,,0.00,WUHU216DAVISVP2,2013-06-03 09:32:00,
2013-06-03 02:37:00,53.2,49.4,30.11,WSW,239,6.0,8.0,87,0.00,,,0.00,WUHU216DAVISVP2,2013-06-03 09:37:00,
2013-06-03 02:42:00,53.0,49.5,30.11,SW,234,5.0,8.0,88,0.00,,,0.00,WUHU216DAVISVP2,2013-06-03 09:42:00,
2013-06-03 02:47:00,52.9,49.4,30.11,West,263,1.0,8.0,88,0.00,,,0.00,WUHU216DAVISVP2,2013-06-03 09:47:00,
2013-06-03 02:52:00,52.7,49.5,30.11,WSW,256,1.0,7.0,89,0.00,,,0.00,WUHU216DAVISVP2,2013-06-03 09:52:00,
2013-06-03 02:57:00,52.6,49.4,30.11,SW,232,4.0,7.0,89,0.00,,,0.00,WUHU216DAVISVP2,2013-06-03 09:57:00,
2013-06-03 03:02:00,52.4,49.2,30.11,West,266,4.0,8.0,89,0.00,,,0.00,WUHU216DAVISVP2,2013-06-03 10:02:00,
2013-06-03 03:07:00,52.3,49.4,30.11,WNW,296,0.0,8.0,90,0.00,,,0.00,WUHU216DAVISVP2,2013-06-03 10:07:00,
2013-06-03 03:12:00,52.2,49.4,30.11,West,262,3.0,7.0,90,0.00,,,0.00,WUHU216DAVISVP2,2013-06-03 10:12:00,
2013-06-03 03:17:00,52.1,49.2,30.12,SW,231,3.0,7.0,90,0.00,,,0.00,WUHU216DAVISVP2,2013-06-03 10:17:00,
2013-06-03 03:22:00,52.0,49.4,30.11,SW,225,3.0,7.0,91,0.00,,,0.00,WUHU216DAVISVP2,2013-06-03 10:22:00,
2013-06-03 03:27:00,51.9,49.3,30.11,SW,234,1.0,7.0,91,0.00,,,0.00,WUHU216DAVISVP2,2013-06-03 10:27:00,
2013-06-03 03:32:00,51.8,49.2,30.12,WSW,243,3.0,7.0,91,0.00,,,0.00,WUHU216DAVISVP2,2013-06-03 10:32:00,
2013-06-03 03:37:00,51.7,49.1,30.11,West,262,0.0,7.0,91,0.00,,,0.00,WUHU216DAVISVP2,2013-06-03 10:37:00,
2013-06-03 03:42:00,51.6,49.3,30.11,WSW,239,2.0,6.0,92,0.00,,,0.00,WUHU216DAVISVP2,2013-06-03 10:42:00,
2013-06-03 03:47:00,51.5,49.2,30.12,WSW,238,6.0,7.0,92,0.00,,,0.00,WUHU216DAVISVP2,2013-06-03 10:47:00,
2013-06-03 03:52:00,51.4,49.1,30.12,WSW,257,2.0,7.0,92,0.00,,,0.00,WUHU216DAVISVP2,2013-06-03 10:52:00,
2013-06-03 03:57:00,51.3,49.0,30.12,WSW,248,4.0,7.0,92,0.00,,,0.00,WUHU216DAVISVP2,2013-06-03 10:57:00,
2013-06-03 04:02:00,51.2,49.2,30.12,SW,234,2.0,7.0,93,0.00,,,0.00,WUHU216DAVISVP2,2013-06-03 11:02:00,
2013-06-03 04:07:00,51.1,49.1,30.12,WSW,242,1.0,7.0,93,0.00,,,0.00,WUHU216DAVISVP2,2013-06-03 11:07:00,
2013-06-03 04:12:00,51.0,49.0,30.12,WSW,243,4.0,7.0,93,0.00,,,0.00,WUHU216DAVISVP2,2013-06-03 11:12:00,
2013-06-03 04:17:00,50.9,48.9,30.12,SW,221,4.0,7.0,93,0.00,,,0.00,WUHU216DAVISVP2,2013-06-03 11:17:00,
2013-06-03 04:22:00,50.8,49.1,30.11,WSW,238,3.0,5.0,94,0.00,,,0.00,WUHU216DAVISVP2,2013-06-03 11:22:00,
2013-06-03 04:27:00,50.8,49.1,30.12,SW,236,2.0,5.0,94,0.00,,,0.00,WUHU216DAVISVP2,2013-06-03 11:27:00,
2013-06-03 04:32:00,50.7,49.0,30.12,SW,235,4.0,6.0,94,0.00,,,0.00,WUHU216DAVISVP2,2013-06-03 11:32:00,
2013-06-03 04:37:00,50.7,49.0,30.12,WSW,249,3.0,6.0,94,0.00,,,0.00,WUHU216DAVISVP2,2013-06-03 11:37:00,
2013-06-03 04:42:00,50.7,49.0,30.12,WSW,245,2.0,6.0,94,0.00,,,0.00,WUHU216DAVISVP2,2013-06-03 11:42:00,
2013-06-03 04:47:00,50.6,48.9,30.12,South,184,2.0,6.0,94,0.00,,,0.00,WUHU216DAVISVP2,2013-06-03 11:47:00,
2013-06-03 04:52:00,50.5,48.8,30.12,SW,222,4.0,6.0,94,0.00,,,0.00,WUHU216DAVISVP2,2013-06-03 11:52:00,
2013-06-03 04:57:00,50.5,49.1,30.12,SW,234,0.0,6.0,95,0.00,,,0.00,WUHU216DAVISVP2,2013-06-03 11:57:00,
2013-06-03 05:02:00,50.5,49.1,30.12,WSW,240,2.0,6.0,95,0.00,,,0.00,WUHU216DAVISVP2,2013-06-03 12:02:00,
2013-06-03 05:07:00,50.5,49.1,30.12,WSW,243,1.0,6.0,95,0.00,,,0.00,WUHU216DAVISVP2,2013-06-03 12:07:00,
2013-06-03 05:12:00,50.4,49.0,30.12,SW,221,4.0,5.0,95,0.00,,,0.00,WUHU216DAVISVP2,2013-06-03 12:12:00,
2013-06-03 05:17:00,50.5,49.1,30.12,South,170,0.0,4.0,95,0.00,,,0.00,WUHU216DAVISVP2,2013-06-03 12:17:00,
2013-06-03 05:22:00,50.5,49.1,30.12,SW,226,2.0,4.0,95,0.00,,,0.00,WUHU216DAVISVP2,2013-06-03 12:22:00,
2013-06-03 05:27:00,50.4,49.0,30.13,SW,226,2.0,6.0,95,0.00,,,0.00,WUHU216DAVISVP2,2013-06-03 12:27:00,
2013-06-03 05:32:00,50.5,49.1,30.13,WSW,252,3.0,6.0,95,0.00,,,0.00,WUHU216DAVISVP2,2013-06-03 12:32:00,
2013-06-03 05:37:00,50.4,49.0,30.13,SSW,207,3.0,6.0,95,0.00,,,0.00,WUHU216DAVISVP2,2013-06-03 12:37:00,
2013-06-03 05:42:00,50.4,49.0,30.13,SE,136,2.0,5.0,95,0.00,,,0.00,WUHU216DAVISVP2,2013-06-03 12:42:00,
2013-06-03 05:47:00,50.4,49.0,30.13,SW,217,1.0,5.0,95,0.00,,,0.00,WUHU216DAVISVP2,2013-06-03 12:47:00,
2013-06-03 05:52:00,50.5,49.1,30.13,SW,235,1.0,5.0,95,0.00,,,0.00,WUHU216DAVISVP2,2013-06-03 12:52:00,
2013-06-03 05:57:00,50.6,49.2,30.13,WSW,245,3.0,6.0,95,0.00,,,0.00,WUHU216DAVISVP2,2013-06-03 12:57:00,
2013-06-03 06:02:00,50.6,48.9,30.13,SSE,163,1.0,6.0,94,0.00,,,0.00,WUHU216DAVISVP2,2013-06-03 13:02:00,
2013-06-03 06:07:00,50.7,49.0,30.13,WSW,248,1.0,6.0,94,0.00,,,0.00,WUHU216DAVISVP2,2013-06-03 13:07:00,
2013-06-03 06:12:00,50.9,49.2,30.13,SW,217,3.0,5.0,94,0.00,,,0.00,WUHU216DAVISVP2,2013-06-03 13:12:00,
2013-06-03 06:17:00,50.9,49.2,30.13,WSW,250,3.0,6.0,94,0.00,,,0.00,WUHU216DAVISVP2,2013-06-03 13:17:00,
2013-06-03 06:22:00,50.9,49.2,30.13,WSW,245,3.0,7.0,94,0.00,,,0.00,WUHU216DAVISVP2,2013-06-03 13:22:00,
2013-06-03 06:27:00,50.8,49.1,30.13,SW,216,4.0,7.0,94,0.00,,,0.00,WUHU216DAVISVP2,2013-06-03 13:27:00,
2013-06-03 06:32:00,50.8,49.1,30.13,SSW,211,1.0,7.0,94,0.00,,,0.00,WUHU216DAVISVP2,2013-06-03 13:32:00,
2013-06-03 06:37:00,50.8,49.1,30.14,SW,215,3.0,7.0,94,0.00,,,0.00,WUHU216DAVISVP2,2013-06-03 13:37:00,
2013-06-03 06:42:00,50.8,49.1,30.13,SSE,163,1.0,5.0,94,0.00,,,0.00,WUHU216DAVISVP2,2013-06-03 13:42:00,
2013-06-03 06:47:00,50.9,49.2,30.14,WSW,239,1.0,5.0,94,0.00,,,0.00,WUHU216DAVISVP2,2013-06-03 13:47:00,
2013-06-03 06:52:00,51.1,49.4,30.14,WSW,246,3.0,6.0,94,0.00,,,0.00,WUHU216DAVISVP2,2013-06-03 13:52:00,
2013-06-03 06:57:00,51.1,49.1,30.14,SW,224,3.0,7.0,93,0.00,,,0.00,WUHU216DAVISVP2,2013-06-03 13:57:00,
2013-06-03 07:02:00,51.0,49.0,30.14,South,177,2.0,7.0,93,0.00,,,0.00,WUHU216DAVISVP2,2013-06-03 14:02:00,
2013-06-03 07:07:00,51.0,49.0,30.14,South,186,2.0,7.0,93,0.00,,,0.00,WUHU216DAVISVP2,2013-06-03 14:07:00,
2013-06-03 07:12:00,51.2,49.2,30.15,SW,236,5.0,7.0,93,0.00,,,0.00,WUHU216DAVISVP2,2013-06-03 14:12:00,
2013-06-03 07:17:00,51.3,49.3,30.15,WSW,245,1.0,6.0,93,0.00,,,0.00,WUHU216DAVISVP2,2013-06-03 14:17:00,
2013-06-03 07:22:00,51.4,49.4,30.15,WSW,240,3.0,6.0,93,0.00,,,0.00,WUHU216DAVISVP2,2013-06-03 14:22:00,
2013-06-03 07:27:00,51.5,49.5,30.15,SSW,210,2.0,5.0,93,0.00,,,0.00,WUHU216DAVISVP2,2013-06-03 14:27:00,
2013-06-03 07:32:00,51.7,49.7,30.15,SSW,207,4.0,4.0,93,0.00,,,0.00,WUHU216DAVISVP2,2013-06-03 14:32:00,
2013-06-03 07:37:00,51.7,49.4,30.15,WSW,250,3.0,6.0,92,0.00,,,0.00,WUHU216DAVISVP2,2013-06-03 14:37:00,
2013-06-03 07:42:00,51.7,49.4,30.15,SSW,203,4.0,6.0,92,0.00,,,0.00,WUHU216DAVISVP2,2013-06-03 14:42:00,
2013-06-03 07:47:00,51.7,49.4,30.15,SW,231,2.0,6.0,92,0.00,,,0.00,WUHU216DAVISVP2,2013-06-03 14:47:00,
2013-06-03 07:52:00,51.7,49.4,30.15,WSW,248,5.0,6.0,92,0.00,,,0.00,WUHU216DAVISVP2,2013-06-03 14:52:00,
2013-06-03 07:57:00,51.8,49.5,30.15,SW,217,1.0,6.0,92,0.00,,,0.00,WUHU216DAVISVP2,2013-06-03 14:57:00,
2013-06-03 08:02:00,52.0,49.7,30.15,SSW,205,2.0,5.0,92,0.00,,,0.00,WUHU216DAVISVP2,2013-06-03 15:02:00,
2013-06-03 08:07:00,52.2,49.6,30.15,West,262,3.0,7.0,91,0.00,,,0.00,WUHU216DAVISVP2,2013-06-03 15:07:00,
2013-06-03 08:12:00,52.2,49.4,30.15,WSW,254,1.0,7.0,90,0.00,,,0.00,WUHU216DAVISVP2,2013-06-03 15:12:00,
2013-06-03 08:17:00,52.4,49.6,30.16,SSW,206,5.0,7.0,90,0.00,,,0.00,WUHU216DAVISVP2,2013-06-03 15:17:00,
2013-06-03 08:22:00,52.4,49.5,30.16,SW,214,1.0,8.0,90,0.00,,,0.00,WUHU216DAVISVP2,2013-06-03 15:22:00,
2013-06-03 08:27:00,52.7,49.5,30.16,WSW,246,4.0,8.0,89,0.00,,,0.00,WUHU216DAVISVP2,2013-06-03 15:27:00,
2013-06-03 08:32:00,52.6,49.4,30.16,SSW,204,3.0,7.0,89,0.00,,,0.00,WUHU216DAVISVP2,2013-06-03 15:32:00,
2013-06-03 08:37:00,52.4,49.2,30.16,SW,231,2.0,8.0,89,0.00,,,0.00,WUHU216DAVISVP2,2013-06-03 15:37:00,
2013-06-03 08:42:00,52.3,49.1,30.16,SSE,159,3.0,8.0,89,0.00,,,0.00,WUHU216DAVISVP2,2013-06-03 15:42:00,
2013-06-03 08:47:00,52.5,49.6,30.16,SW,221,1.0,7.0,90,0.00,,,0.00,WUHU216DAVISVP2,2013-06-03 15:47:00,
2013-06-03 08:52:00,52.5,49.6,30.16,WSW,238,4.0,8.0,90,0.00,,,0.00,WUHU216DAVISVP2,2013-06-03 15:52:00,
2013-06-03 08:57:00,52.8,49.9,30.16,NW,307,1.0,8.0,90,0.00,,,0.00,WUHU216DAVISVP2,2013-06-03 15:57:00,
2013-06-03 09:02:00,53.1,49.9,30.16,SW,226,4.0,7.0,89,0.00,,,0.00,WUHU216DAVISVP2,2013-06-03 16:02:00,
2013-06-03 09:07:00,53.2,49.7,30.16,WNW,283,0.0,7.0,88,0.00,,,0.00,WUHU216DAVISVP2,2013-06-03 16:07:00,
2013-06-03 09:12:00,53.4,49.9,30.16,SSW,201,3.0,5.0,88,0.00,,,0.00,WUHU216DAVISVP2,2013-06-03 16:12:00,
2013-06-03 09:17:00,53.3,49.5,30.16,SW,225,4.0,6.0,87,0.00,,,0.00,WUHU216DAVISVP2,2013-06-03 16:17:00,
2013-06-03 09:22:00,53.3,49.5,30.16,SW,221,6.0,9.0,87,0.00,,,0.00,WUHU216DAVISVP2,2013-06-03 16:22:00,
2013-06-03 09:27:00,53.1,49.6,30.16,SSW,208,1.0,9.0,88,0.00,,,0.00,WUHU216DAVISVP2,2013-06-03 16:27:00,
2013-06-03 09:32:00,53.2,49.7,30.16,SSW,198,1.0,9.0,88,0.00,,,0.00,WUHU216DAVISVP2,2013-06-03 16:32:00,
2013-06-03 09:37:00,53.4,49.6,30.16,SW,215,2.0,8.0,87,0.00,,,0.00,WUHU216DAVISVP2,2013-06-03 16:37:00,
2013-06-03 09:42:00,53.4,49.6,30.16,West,264,7.0,8.0,87,0.00,,,0.00,WUHU216DAVISVP2,2013-06-03 16:42:00,
2013-06-03 09:47:00,53.3,49.5,30.16,SW,231,4.0,9.0,87,0.00,,,0.00,WUHU216DAVISVP2,2013-06-03 16:47:00,
2013-06-03 09:52:00,53.8,50.0,30.16,WSW,245,5.0,9.0,87,0.00,,,0.00,WUHU216DAVISVP2,2013-06-03 16:52:00,
2013-06-03 09:57:00,54.1,50.0,30.16,SSW,210,3.0,10.0,86,0.00,,,0.00,WUHU216DAVISVP2,2013-06-03 16:57:00,
2013-06-03 10:02:00,54.5,50.1,30.16,SW,215,4.0,10.0,85,0.00,,,0.00,WUHU216DAVISVP2,2013-06-03 17:02:00,
2013-06-03 10:07:00,54.4,50.0,30.16,SW,228,1.0,9.0,85,0.00,,,0.00,WUHU216DAVISVP2,2013-06-03 17:07:00,
2013-06-03 10:12:00,54.8,50.4,30.16,West,269,0.0,9.0,85,0.00,,,0.00,WUHU216DAVISVP2,2013-06-03 17:12:00,
2013-06-03 10:17:00,54.9,49.9,30.16,SW,231,6.0,8.0,83,0.00,,,0.00,WUHU216DAVISVP2,2013-06-03 17:17:00,
2013-06-03 10:22:00,54.0,49.6,30.17,SSW,200,1.0,9.0,85,0.00,,,0.00,WUHU216DAVISVP2,2013-06-03 17:22:00,
2013-06-03 10:27:00,53.9,49.8,30.16,West,262,2.0,9.0,86,0.00,,,0.00,WUHU216DAVISVP2,2013-06-03 17:27:00,
2013-06-03 10:32:00,53.9,49.5,30.16,SW,219,3.0,9.0,85,0.00,,,0.00,WUHU216DAVISVP2,2013-06-03 17:32:00,
2013-06-03 10:37:00,53.9,49.5,30.16,SW,225,4.0,11.0,85,0.00,,,0.00,WUHU216DAVISVP2,2013-06-03 17:37:00,
2013-06-03 10:42:00,53.8,49.4,30.16,WSW,253,5.0,11.0,85,0.00,,,0.00,WUHU216DAVISVP2,2013-06-03 17:42:00,
2013-06-03 10:47:00,54.1,49.7,30.16,WSW,238,9.0,10.0,85,0.00,,,0.00,WUHU216DAVISVP2,2013-06-03 17:47:00,
2013-06-03 10:52:00,54.0,49.6,30.16,WSW,253,5.0,10.0,85,0.00,,,0.00,WUHU216DAVISVP2,2013-06-03 17:52:00,
2013-06-03 10:57:00,54.1,50.0,30.16,SW,222,5.0,9.0,86,0.00,,,0.00,WUHU216DAVISVP2,2013-06-03 17:57:00,
2013-06-03 11:02:00,54.2,49.8,30.16,SW,234,6.0,9.0,85,0.00,,,0.00,WUHU216DAVISVP2,2013-06-03 18:02:00,
2013-06-03 11:07:00,54.5,49.8,30.16,SW,228,4.0,10.0,84,0.00,,,0.00,WUHU216DAVISVP2,2013-06-03 18:07:00,
2013-06-03 11:12:00,55.1,50.4,30.16,WSW,239,5.0,10.0,84,0.00,,,0.00,WUHU216DAVISVP2,2013-06-03 18:12:00,
2013-06-03 11:17:00,56.0,50.3,30.16,SSW,200,0.0,9.0,81,0.00,,,0.00,WUHU216DAVISVP2,2013-06-03 18:17:00,
2013-06-03 11:22:00,55.8,50.1,30.16,SSW,203,2.0,10.0,81,0.00,,,0.00,WUHU216DAVISVP2,2013-06-03 18:22:00,
2013-06-03 11:27:00,56.1,50.7,30.16,WSW,240,5.0,10.0,82,0.00,,,0.00,WUHU216DAVISVP2,2013-06-03 18:27:00,
2013-06-03 11:32:00,56.2,50.2,30.16,WSW,252,5.0,9.0,80,0.00,,,0.00,WUHU216DAVISVP2,2013-06-03 18:32:00,
2013-06-03 11:37:00,57.2,51.1,30.16,South,169,0.0,9.0,80,0.00,,,0.00,WUHU216DAVISVP2,2013-06-03 18:37:00,
2013-06-03 11:42:00,58.0,51.2,30.16,SW,218,4.0,8.0,78,0.00,,,0.00,WUHU216DAVISVP2,2013-06-03 18:42:00,
2013-06-03 11:47:00,58.9,52.1,30.16,SW,229,3.0,8.0,78,0.00,,,0.00,WUHU216DAVISVP2,2013-06-03 18:47:00,
2013-06-03 11:52:00,59.7,51.5,30.16,SSW,193,0.0,7.0,74,0.00,,,0.00,WUHU216DAVISVP2,2013-06-03 18:52:00,
2013-06-03 11:57:00,59.1,51.5,30.16,WSW,242,4.0,9.0,76,0.00,,,0.00,WUHU216DAVISVP2,2013-06-03 18:57:00,
2013-06-03 12:02:00,58.8,51.2,30.16,SW,236,5.0,9.0,76,0.00,,,0.00,WUHU216DAVISVP2,2013-06-03 19:02:00,
2013-06-03 12:07:00,59.7,51.4,30.16,SW,219,3.0,9.0,74,0.00,,,0.00,WUHU216DAVISVP2,2013-06-03 19:07:00,
2013-06-03 12:12:00,60.1,51.4,30.16,WSW,256,3.0,9.0,73,0.00,,,0.00,WUHU216DAVISVP2,2013-06-03 19:12:00,
2013-06-03 12:17:00,59.2,50.9,30.15,SSE,165,5.0,8.0,74,0.00,,,0.00,WUHU216DAVISVP2,2013-06-03 19:17:00,
2013-06-03 12:22:00,60.0,52.4,30.15,WSW,249,0.0,8.0,76,0.00,,,0.00,WUHU216DAVISVP2,2013-06-03 19:22:00,
2013-06-03 12:27:00,61.0,52.7,30.15,NW,322,2.0,8.0,74,0.00,,,0.00,WUHU216DAVISVP2,2013-06-03 19:27:00,
2013-06-03 12:32:00,61.8,52.7,30.15,ENE,61,0.0,8.0,72,0.00,,,0.00,WUHU216DAVISVP2,2013-06-03 19:32:00,
2013-06-03 12:37:00,63.1,52.9,30.15,WSW,239,1.0,7.0,69,0.00,,,0.00,WUHU216DAVISVP2,2013-06-03 19:37:00,
2013-06-03 12:42:00,63.9,52.5,30.15,West,262,5.0,6.0,66,0.00,,,0.00,WUHU216DAVISVP2,2013-06-03 19:42:00,
2013-06-03 12:47:00,63.2,53.0,30.15,SW,219,1.0,7.0,69,0.00,,,0.00,WUHU216DAVISVP2,2013-06-03 19:47:00,
2013-06-03 12:52:00,64.3,52.4,30.15,SSW,212,1.0,7.0,65,0.00,,,0.00,WUHU216DAVISVP2,2013-06-03 19:52:00,
2013-06-03 12:57:00,63.0,51.6,30.15,WSW,239,4.0,7.0,66,0.00,,,0.00,WUHU216DAVISVP2,2013-06-03 19:57:00,
2013-06-03 13:02:00,63.0,52.0,30.14,SW,219,4.0,7.0,67,0.00,,,0.00,WUHU216DAVISVP2,2013-06-03 20:02:00,
2013-06-03 13:07:00,62.7,52.5,30.15,SW,219,0.0,7.0,69,0.00,,,0.00,WUHU216DAVISVP2,2013-06-03 20:07:00,
2013-06-03 13:12:00,63.2,53.0,30.14,West,281,0.0,7.0,69,0.00,,,0.00,WUHU216DAVISVP2,2013-06-03 20:12:00,
2013-06-03 13:17:00,63.4,53.0,30.14,NNW,338,0.0,8.0,69,0.00,,,0.00,WUHU216DAVISVP2,2013-06-03 20:17:00,
2013-06-03 13:22:00,65.0,53.9,30.14,NE,51,0.0,8.0,67,0.00,,,0.00,WUHU216DAVISVP2,2013-06-03 20:22:00,
2013-06-03 13:27:00,66.2,53.8,30.14,West,266,0.0,7.0,64,0.00,,,0.00,WUHU216DAVISVP2,2013-06-03 20:27:00,
2013-06-03 13:32:00,66.4,53.4,30.14,NNW,336,1.0,7.0,63,0.00,,,0.00,WUHU216DAVISVP2,2013-06-03 20:32:00,
2013-06-03 13:37:00,64.8,52.5,30.14,WSW,242,1.0,8.0,64,0.00,,,0.00,WUHU216DAVISVP2,2013-06-03 20:37:00,
2013-06-03 13:42:00,64.7,53.2,30.14,NE,39,0.0,8.0,66,0.00,,,0.00,WUHU216DAVISVP2,2013-06-03 20:42:00,
2013-06-03 13:47:00,65.8,53.0,30.14,NNE,12,0.0,7.0,63,0.00,,,0.00,WUHU216DAVISVP2,2013-06-03 20:47:00,
2013-06-03 13:52:00,66.2,53.0,30.14,SW,222,3.0,6.0,62,0.00,,,0.00,WUHU216DAVISVP2,2013-06-03 20:52:00,
2013-06-03 13:57:00,65.6,52.8,30.14,WSW,256,6.0,7.0,63,0.00,,,0.00,WUHU216DAVISVP2,2013-06-03 20:57:00,
2013-06-03 14:02:00,65.6,53.3,30.14,North,10,0.0,7.0,64,0.00,,,0.00,WUHU216DAVISVP2,2013-06-03 21:02:00,
2013-06-03 14:07:00,65.6,52.8,30.14,SW,236,1.0,7.0,63,0.00,,,0.00,WUHU216DAVISVP2,2013-06-03 21:07:00,
2013-06-03 14:12:00,66.5,53.2,30.14,North,1,1.0,7.0,62,0.00,,,0.00,WUHU216DAVISVP2,2013-06-03 21:12:00,
2013-06-03 14:17:00,67.3,54.0,30.13,WSW,246,0.0,7.0,62,0.00,,,0.00,WUHU216DAVISVP2,2013-06-03 21:17:00,
2013-06-03 14:22:00,67.9,54.6,30.13,South,170,2.0,7.0,62,0.00,,,0.00,WUHU216DAVISVP2,2013-06-03 21:22:00,
2013-06-03 14:27:00,67.6,53.8,30.13,WSW,256,4.0,6.0,61,0.00,,,0.00,WUHU216DAVISVP2,2013-06-03 21:27:00,
2013-06-03 14:32:00,67.3,53.1,30.13,ENE,57,1.0,8.0,60,0.00,,,0.00,WUHU216DAVISVP2,2013-06-03 21:32:00,
2013-06-03 14:37:00,67.7,53.9,30.13,SW,224,0.0,8.0,61,0.00,,,0.00,WUHU216DAVISVP2,2013-06-03 21:37:00,
2013-06-03 14:42:00,69.2,54.0,30.13,NE,49,0.0,7.0,58,0.00,,,0.00,WUHU216DAVISVP2,2013-06-03 21:42:00,
2013-06-03 14:47:00,69.6,52.7,30.13,SW,221,3.0,7.0,55,0.00,,,0.00,WUHU216DAVISVP2,2013-06-03 21:47:00,
2013-06-03 14:52:00,69.4,53.0,30.12,NW,326,1.0,6.0,56,0.00,,,0.00,WUHU216DAVISVP2,2013-06-03 21:52:00,
2013-06-03 14:57:00,70.2,52.9,30.12,WSW,243,2.0,6.0,54,0.00,,,0.00,WUHU216DAVISVP2,2013-06-03 21:57:00,
2013-06-03 15:02:00,69.3,53.1,30.12,SW,235,3.0,7.0,56,0.00,,,0.00,WUHU216DAVISVP2,2013-06-03 22:02:00,
2013-06-03 15:07:00,69.8,53.5,30.12,NE,49,1.0,7.0,56,0.00,,,0.00,WUHU216DAVISVP2,2013-06-03 22:07:00,
2013-06-03 15:12:00,70.4,53.1,30.12,East,99,0.0,6.0,54,0.00,,,0.00,WUHU216DAVISVP2,2013-06-03 22:12:00,
2013-06-03 15:17:00,70.7,52.7,30.12,NW,323,4.0,6.0,53,0.00,,,0.00,WUHU216DAVISVP2,2013-06-03 22:17:00,
2013-06-03 15:22:00,70.9,53.0,30.12,East,79,1.0,5.0,53,0.00,,,0.00,WUHU216DAVISVP2,2013-06-03 22:22:00,
2013-06-03 15:27:00,71.2,53.3,30.12,SSW,208,0.0,6.0,53,0.00,,,0.00,WUHU216DAVISVP2,2013-06-03 22:27:00,
2013-06-03 15:32:00,71.2,52.2,30.12,SW,233,2.0,6.0,51,0.00,,,0.00,WUHU216DAVISVP2,2013-06-03 22:32:00,
2013-06-03 15:37:00,70.8,52.9,30.12,NW,319,1.0,6.0,53,0.00,,,0.00,WUHU216DAVISVP2,2013-06-03 22:37:00,
2013-06-03 15:42:00,71.4,53.4,30.12,NE,37,1.0,6.0,53,0.00,,,0.00,WUHU216DAVISVP2,2013-06-03 22:42:00,
2013-06-03 15:47:00,71.8,52.2,30.12,SSW,204,0.0,5.0,50,0.00,,,0.00,WUHU216DAVISVP2,2013-06-03 22:47:00,
2013-06-03 15:52:00,72.0,53.0,30.12,NW,310,0.0,5.0,51,0.00,,,0.00,WUHU216DAVISVP2,2013-06-03 22:52:00,
2013-06-03 15:57:00,71.6,50.9,30.11,West,280,0.0,5.0,48,0.00,,,0.00,WUHU216DAVISVP2,2013-06-03 22:57:00,
2013-06-03 16:02:00,71.7,51.6,30.11,North,1,1.0,5.0,49,0.00,,,0.00,WUHU216DAVISVP2,2013-06-03 23:02:00,
2013-06-03 16:07:00,72.0,51.8,30.11,East,91,1.0,5.0,49,0.00,,,0.00,WUHU216DAVISVP2,2013-06-03 23:07:00,
2013-06-03 16:12:00,71.3,51.2,30.11,NW,319,0.0,4.0,49,0.00,,,0.00,WUHU216DAVISVP2,2013-06-03 23:12:00,
2013-06-03 16:17:00,71.0,51.5,30.11,NNE,30,2.0,4.0,50,0.00,,,0.00,WUHU216DAVISVP2,2013-06-03 23:17:00,
2013-06-03 16:22:00,71.0,52.0,30.11,South,180,0.0,4.0,51,0.00,,,0.00,WUHU216DAVISVP2,2013-06-03 23:22:00,
2013-06-03 16:27:00,71.2,52.1,30.10,ENE,78,0.0,4.0,51,0.00,,,0.00,WUHU216DAVISVP2,2013-06-03 23:27:00,
2013-06-03 16:32:00,71.3,51.2,30.10,SSW,212,1.0,4.0,49,0.00,,,0.00,WUHU216DAVISVP2,2013-06-03 23:32:00,
2013-06-03 16:37:00,70.9,51.4,30.10,SW,226,1.0,6.0,50,0.00,,,0.00,WUHU216DAVISVP2,2013-06-03 23:37:00,
2013-06-03 16:42:00,70.9,51.9,30.10,North,11,1.0,6.0,51,0.00,,,0.00,WUHU216DAVISVP2,2013-06-03 23:42:00,
2013-06-03 16:47:00,71.4,52.9,30.10,SW,226,1.0,6.0,52,0.00,,,0.00,WUHU216DAVISVP2,2013-06-03 23:47:00,
2013-06-03 16:52:00,70.7,52.2,30.10,WSW,252,1.0,9.0,52,0.00,,,0.00,WUHU216DAVISVP2,2013-06-03 23:52:00,
2013-06-03 16:57:00,71.1,53.2,30.10,WNW,293,1.0,9.0,53,0.00,,,0.00,WUHU216DAVISVP2,2013-06-03 23:57:00,
2013-06-03 17:02:00,71.4,53.0,30.10,NNW,340,2.0,8.0,52,0.00,,,0.00,WUHU216DAVISVP2,2013-06-04 00:02:00,
2013-06-03 17:07:00,71.1,53.2,30.10,NNE,25,0.0,8.0,53,0.00,,,0.00,WUHU216DAVISVP2,2013-06-04 00:07:00,
2013-06-03 17:12:00,71.3,53.4,30.10,East,96,2.0,6.0,53,0.00,,,0.00,WUHU216DAVISVP2,2013-06-04 00:12:00,
2013-06-03 17:17:00,71.8,53.3,30.10,WSW,250,0.0,5.0,52,0.00,,,0.00,WUHU216DAVISVP2,2013-06-04 00:17:00,
2013-06-03 17:22:00,71.7,53.2,30.10,WSW,238,1.0,5.0,52,0.00,,,0.00,WUHU216DAVISVP2,2013-06-04 00:22:00,
2013-06-03 17:27:00,72.0,53.5,30.10,NE,40,0.0,5.0,52,0.00,,,0.00,WUHU216DAVISVP2,2013-06-04 00:27:00,
2013-06-03 17:32:00,72.3,53.8,30.10,WSW,243,0.0,5.0,52,0.00,,,0.00,WUHU216DAVISVP2,2013-06-04 00:32:00,
2013-06-03 17:37:00,72.6,54.1,30.10,North,356,3.0,5.0,52,0.00,,,0.00,WUHU216DAVISVP2,2013-06-04 00:37:00,
2013-06-03 17:42:00,72.2,53.7,30.10,North,11,2.0,3.0,52,0.00,,,0.00,WUHU216DAVISVP2,2013-06-04 00:42:00,
2013-06-03 17:47:00,72.0,52.9,30.10,SW,229,1.0,3.0,51,0.00,,,0.00,WUHU216DAVISVP2,2013-06-04 00:47:00,
2013-06-03 17:52:00,72.1,53.6,30.10,SE,143,0.0,3.0,52,0.00,,,0.00,WUHU216DAVISVP2,2013-06-04 00:52:00,
2013-06-03 17:57:00,72.5,52.9,30.10,NNE,30,0.0,3.0,50,0.00,,,0.00,WUHU216DAVISVP2,2013-06-04 00:57:00,
2013-06-03 18:02:00,72.7,53.0,30.10,NNE,31,0.0,3.0,50,0.00,,,0.00,WUHU216DAVISVP2,2013-06-04 01:02:00,
2013-06-03 18:07:00,72.6,52.4,30.09,NNE,22,0.0,3.0,49,0.00,,,0.00,WUHU216DAVISVP2,2013-06-04 01:07:00,
2013-06-03 18:12:00,72.5,52.3,30.10,NNE,31,0.0,2.0,49,0.00,,,0.00,WUHU216DAVISVP2,2013-06-04 01:12:00,
2013-06-03 18:17:00,72.5,52.9,30.09,NE,34,0.0,2.0,50,0.00,,,0.00,WUHU216DAVISVP2,2013-06-04 01:17:00,
2013-06-03 18:22:00,72.3,53.2,30.10,NNE,15,1.0,2.0,51,0.00,,,0.00,WUHU216DAVISVP2,2013-06-04 01:22:00,
2013-06-03 18:27:00,71.8,52.7,30.10,North,360,0.0,3.0,51,0.00,,,0.00,WUHU216DAVISVP2,2013-06-04 01:27:00,
2013-06-03 18:32:00,71.3,52.9,30.10,ENE,63,1.0,4.0,52,0.00,,,0.00,WUHU216DAVISVP2,2013-06-04 01:32:00,
2013-06-03 18:37:00,70.8,52.9,30.10,ENE,77,2.0,4.0,53,0.00,,,0.00,WUHU216DAVISVP2,2013-06-04 01:37:00,
2013-06-03 18:42:00,69.8,53.5,30.10,NNW,343,1.0,7.0,56,0.00,,,0.00,WUHU216DAVISVP2,2013-06-04 01:42:00,
2013-06-03 18:47:00,69.1,53.9,30.10,NNE,20,2.0,7.0,58,0.00,,,0.00,WUHU216DAVISVP2,2013-06-04 01:47:00,
2013-06-03 18:52:00,68.6,54.3,30.10,NE,51,1.0,7.0,60,0.00,,,0.00,WUHU216DAVISVP2,2013-06-04 01:52:00,
2013-06-03 18:57:00,68.6,54.3,30.10,NNE,26,0.0,7.0,60,0.00,,,0.00,WUHU216DAVISVP2,2013-06-04 01:57:00,
2013-06-03 19:02:00,68.5,54.2,30.10,NW,323,1.0,7.0,60,0.00,,,0.00,WUHU216DAVISVP2,2013-06-04 02:02:00,
2013-06-03 19:07:00,68.2,54.0,30.10,NNE,23,0.0,7.0,60,0.00,,,0.00,WUHU216DAVISVP2,2013-06-04 02:07:00,
2013-06-03 19:12:00,68.0,53.3,30.10,North,9,0.0,6.0,59,0.00,,,0.00,WUHU216DAVISVP2,2013-06-04 02:12:00,
2013-06-03 19:17:00,67.4,53.2,30.11,East,89,1.0,6.0,60,0.00,,,0.00,WUHU216DAVISVP2,2013-06-04 02:17:00,
2013-06-03 19:22:00,66.7,53.0,30.11,NNE,23,1.0,9.0,61,0.00,,,0.00,WUHU216DAVISVP2,2013-06-04 02:22:00,
2013-06-03 19:27:00,66.2,53.0,30.10,NNW,345,3.0,9.0,62,0.00,,,0.00,WUHU216DAVISVP2,2013-06-04 02:27:00,
2013-06-03 19:32:00,65.9,53.1,30.11,NNE,20,4.0,8.0,63,0.00,,,0.00,WUHU216DAVISVP2,2013-06-04 02:32:00,
2013-06-03 19:37:00,65.6,52.8,30.10,North,349,7.0,9.0,63,0.00,,,0.00,WUHU216DAVISVP2,2013-06-04 02:37:00,
2013-06-03 19:42:00,65.4,53.1,30.11,NNW,339,0.0,9.0,64,0.00,,,0.00,WUHU216DAVISVP2,2013-06-04 02:42:00,
2013-06-03 19:47:00,65.3,53.4,30.11,NE,41,0.0,8.0,65,0.00,,,0.00,WUHU216DAVISVP2,2013-06-04 02:47:00,
2013-06-03 19:52:00,65.2,53.1,30.11,East,88,0.0,8.0,65,0.00,,,0.00,WUHU216DAVISVP2,2013-06-04 02:52:00,
2013-06-03 19:57:00,64.9,53.4,30.11,East,90,1.0,8.0,66,0.00,,,0.00,WUHU216DAVISVP2,2013-06-04 02:57:00,
2013-06-03 20:02:00,64.6,53.1,30.11,North,4,6.0,8.0,66,0.00,,,0.00,WUHU216DAVISVP2,2013-06-04 03:02:00,
2013-06-03 20:07:00,64.3,53.1,30.11,NNE,18,4.0,7.0,67,0.00,,,0.00,WUHU216DAVISVP2,2013-06-04 03:07:00,
2013-06-03 20:12:00,64.1,52.7,30.11,NNE,24,2.0,11.0,66,0.00,,,0.00,WUHU216DAVISVP2,2013-06-04 03:12:00,
2013-06-03 20:17:00,63.8,52.8,30.11,NNE,23,2.0,11.0,67,0.00,,,0.00,WUHU216DAVISVP2,2013-06-04 03:17:00,
2013-06-03 20:22:00,63.5,52.5,30.11,North,1,2.0,10.0,67,0.00,,,0.00,WUHU216DAVISVP2,2013-06-04 03:22:00,
2013-06-03 20:27:00,63.3,51.5,30.11,North,6,5.0,10.0,65,0.00,,,0.00,WUHU216DAVISVP2,2013-06-04 03:27:00,
2013-06-03 20:32:00,63.0,50.6,30.11,NNW,340,3.0,9.0,64,0.00,,,0.00,WUHU216DAVISVP2,2013-06-04 03:32:00,
2013-06-03 20:37:00,62.7,50.1,30.11,North,8,3.0,10.0,63,0.00,,,0.00,WUHU216DAVISVP2,2013-06-04 03:37:00,
2013-06-03 20:42:00,62.4,49.8,30.11,NNE,18,2.0,10.0,63,0.00,,,0.00,WUHU216DAVISVP2,2013-06-04 03:42:00,
2013-06-03 20:47:00,62.1,49.9,30.11,NNE,23,2.0,10.0,64,0.00,,,0.00,WUHU216DAVISVP2,2013-06-04 03:47:00,
2013-06-03 20:52:00,61.9,49.7,30.12,NNE,22,7.0,9.0,64,0.00,,,0.00,WUHU216DAVISVP2,2013-06-04 03:52:00,
2013-06-03 20:57:00,61.7,49.8,30.12,NNE,16,2.0,9.0,65,0.00,,,0.00,WUHU216DAVISVP2,2013-06-04 03:57:00,
2013-06-03 21:01:00,61.5,50.0,30.12,NNE,16,1.0,7.0,66,0.00,,,0.00,WUHU216DAVISVP2,2013-06-04 04:01:00,
2013-06-03 21:06:00,61.1,50.2,30.12,NNW,348,1.0,7.0,67,0.00,,,0.00,WUHU216DAVISVP2,2013-06-04 04:06:00,
2013-06-03 21:11:00,60.8,49.9,30.12,North,353,1.0,7.0,67,0.00,,,0.00,WUHU216DAVISVP2,2013-06-04 04:11:00,
2013-06-03 21:16:00,60.6,50.1,30.12,NNW,338,0.0,6.0,68,0.00,,,0.00,WUHU216DAVISVP2,2013-06-04 04:16:00,
2013-06-03 21:21:00,60.5,50.4,30.12,North,6,0.0,5.0,69,0.00,,,0.00,WUHU216DAVISVP2,2013-06-04 04:21:00,
2013-06-03 21:26:00,60.3,50.5,30.13,North,1,0.0,4.0,70,0.00,,,0.00,WUHU216DAVISVP2,2013-06-04 04:26:00,
2013-06-03 21:31:00,60.0,50.2,30.12,North,10,2.0,4.0,70,0.00,,,0.00,WUHU216DAVISVP2,2013-06-04 04:31:00,
2013-06-03 21:36:00,59.8,50.5,30.13,NNW,348,3.0,6.0,71,0.00,,,0.00,WUHU216DAVISVP2,2013-06-04 04:36:00,
2013-06-03 21:42:00,59.6,50.3,30.12,North,359,2.0,6.0,71,0.00,,,0.00,WUHU216DAVISVP2,2013-06-04 04:42:00,
2013-06-03 21:47:00,59.5,50.6,30.13,NNW,333,0.0,6.0,72,0.00,,,0.00,WUHU216DAVISVP2,2013-06-04 04:47:00,
2013-06-03 21:52:00,59.3,50.4,30.13,NNW,335,0.0,6.0,72,0.00,,,0.00,WUHU216DAVISVP2,2013-06-04 04:52:00,
2013-06-03 21:57:00,59.2,50.5,30.13,NNE,27,0.0,5.0,73,0.00,,,0.00,WUHU216DAVISVP2,2013-06-04 04:57:00,
2013-06-03 22:02:00,58.9,50.7,30.12,WNW,290,0.0,5.0,74,0.00,,,0.00,WUHU216DAVISVP2,2013-06-04 05:02:00,
2013-06-03 22:07:00,58.7,50.5,30.12,North,8,0.0,5.0,74,0.00,,,0.00,WUHU216DAVISVP2,2013-06-04 05:07:00,
2013-06-03 22:12:00,58.5,50.7,30.12,NNE,23,0.0,2.0,75,0.00,,,0.00,WUHU216DAVISVP2,2013-06-04 05:12:00,
2013-06-03 22:17:00,58.3,50.5,30.13,NNE,16,0.0,2.0,75,0.00,,,0.00,WUHU216DAVISVP2,2013-06-04 05:17:00,
2013-06-03 22:22:00,58.1,50.7,30.13,North,3,0.0,2.0,76,0.00,,,0.00,WUHU216DAVISVP2,2013-06-04 05:22:00,
2013-06-03 22:27:00,57.9,50.5,30.12,North,359,0.0,2.0,76,0.00,,,0.00,WUHU216DAVISVP2,2013-06-04 05:27:00,
2013-06-03 22:32:00,57.7,50.6,30.13,NNE,15,0.0,2.0,77,0.00,,,0.00,WUHU216DAVISVP2,2013-06-04 05:32:00,
2013-06-03 22:37:00,57.7,50.5,30.13,NE,46,0.0,2.0,77,0.00,,,0.00,WUHU216DAVISVP2,2013-06-04 05:37:00,
2013-06-03 22:42:00,57.5,50.8,30.13,NE,46,0.0,2.0,78,0.00,,,0.00,WUHU216DAVISVP2,2013-06-04 05:42:00,
2013-06-03 22:47:00,57.3,50.6,30.13,NE,55,0.0,1.0,78,0.00,,,0.00,WUHU216DAVISVP2,2013-06-04 05:47:00,
2013-06-03 22:52:00,57.1,50.7,30.13,North,4,0.0,1.0,79,0.00,,,0.00,WUHU216DAVISVP2,2013-06-04 05:52:00,
2013-06-03 22:57:00,57.0,50.9,30.13,NNE,18,0.0,1.0,80,0.00,,,0.00,WUHU216DAVISVP2,2013-06-04 05:57:00,
2013-06-03 23:02:00,57.1,51.0,30.13,NNE,16,0.0,2.0,80,0.00,,,0.00,WUHU216DAVISVP2,2013-06-04 06:02:00,
2013-06-03 23:07:00,57.1,51.0,30.13,NE,41,0.0,5.0,80,0.00,,,0.00,WUHU216DAVISVP2,2013-06-04 06:07:00,
2013-06-03 23:12:00,56.9,50.5,30.13,NNE,23,0.0,5.0,79,0.00,,,0.00,WUHU216DAVISVP2,2013-06-04 06:12:00,
2013-06-03 23:17:00,56.7,49.9,30.13,NNW,347,1.0,5.0,78,0.00,,,0.00,WUHU216DAVISVP2,2013-06-04 06:17:00,
2013-06-03 23:22:00,56.6,49.9,30.13,North,1,2.0,5.0,78,0.00,,,0.00,WUHU216DAVISVP2,2013-06-04 06:22:00,
2013-06-03 23:27:00,56.5,49.8,30.13,NNE,13,1.0,5.0,78,0.00,,,0.00,WUHU216DAVISVP2,2013-06-04 06:27:00,
2013-06-03 23:32:00,56.4,50.0,30.13,NNE,30,0.0,4.0,79,0.00,,,0.00,WUHU216DAVISVP2,2013-06-04 06:32:00,
2013-06-03 23:37:00,56.3,49.9,30.13,NNW,329,0.0,4.0,79,0.00,,,0.00,WUHU216DAVISVP2,2013-06-04 06:37:00,
2013-06-03 23:42:00,56.1,49.7,30.13,North,4,0.0,4.0,79,0.00,,,0.00,WUHU216DAVISVP2,2013-06-04 06:42:00,
2013-06-03 23:47:00,56.0,49.9,30.13,NNW,333,0.0,4.0,80,0.00,,,0.00,WUHU216DAVISVP2,2013-06-04 06:47:00,
2013-06-03 23:52:00,55.9,49.8,30.13,NE,37,0.0,3.0,80,0.00,,,0.00,WUHU216DAVISVP2,2013-06-04 06:52:00,
2013-06-03 23:57:00,55.8,49.8,30.13,North,359,1.0,3.0,80,0.00,,,0.00,WUHU216DAVISVP2,2013-06-04 06:57:00,